When you browse on this site, cookies collect data to enhance your experience and personalize the content and advertising you see.
Visit our Privacy Policy to learn more. By continuing to use the site, you agree to this use of cookies and data.

Meteo pe oră la Trujillo

Astăzi, 25 Septembrie, Vineri

Timp Temperatura Precipitaţii Vânt Presiune Umiditate
00:00 +20°C° 0 mm 1 m/s 648 mmHg 81%
01:00 +19°C° 0 mm 1 m/s 647 mmHg 80%
02:00 +19°C° 0.1 mm 1 m/s 647 mmHg 81%
03:00 +19°C° 0.1 mm 1 m/s 647 mmHg 81%
04:00 +19°C° 0.1 mm 1 m/s 647 mmHg 81%
05:00 +19°C° 0 mm 1 m/s 647 mmHg 80%
06:00 +20°C° 0 mm 1 m/s 648 mmHg 79%
07:00 +21°C° 0 mm 1 m/s 649 mmHg 77%
08:00 +23°C° 0 mm 1 m/s 649 mmHg 70%
09:00 +25°C° 0 mm 1 m/s 650 mmHg 62%
10:00 +27°C° 0 mm 1 m/s 651 mmHg 55%
11:00 +28°C° 0.1 mm 1 m/s 650 mmHg 53%
12:00 +28°C° 0.1 mm 1 m/s 650 mmHg 52%
13:00 +29°C° 0.1 mm 1 m/s 649 mmHg 50%
14:00 +27°C° 0.3 mm 1 m/s 648 mmHg 57%
15:00 +26°C° 0.3 mm 1 m/s 648 mmHg 64%
16:00 +25°C° 0.3 mm 1 m/s 647 mmHg 70%
17:00 +24°C° 0.1 mm 1 m/s 647 mmHg 76%
18:00 +22°C° 0.1 mm 1 m/s 647 mmHg 82%
19:00 +20°C° 0.1 mm 1 m/s 647 mmHg 87%
20:00 +19°C° 0 mm 2 m/s 647 mmHg 84%
21:00 +19°C° 0 mm 2 m/s 647 mmHg 80%
22:00 +18°C° 0 mm 2 m/s 647 mmHg 77%
23:00 +18°C° 0 mm 2 m/s 647 mmHg 75%

Mâine, 26 Septembrie, Sâmbătă

Timp Temperatura Precipitaţii Vânt Presiune Umiditate
00:00 +19°C° 0 mm 1 m/s 647 mmHg 73%
01:00 +19°C° 0 mm 1 m/s 646 mmHg 71%
02:00 +19°C° 0 mm 1 m/s 646 mmHg 70%
03:00 +18°C° 0 mm 1 m/s 646 mmHg 70%
04:00 +18°C° 0 mm 1 m/s 646 mmHg 69%
05:00 +19°C° 0 mm 1 m/s 646 mmHg 68%
06:00 +20°C° 0 mm 1 m/s 647 mmHg 67%
07:00 +21°C° 0 mm 1 m/s 648 mmHg 65%
08:00 +23°C° 0 mm 1 m/s 649 mmHg 60%
09:00 +25°C° 0 mm 1 m/s 649 mmHg 55%
10:00 +27°C° 0 mm 1 m/s 650 mmHg 50%
11:00 +27°C° 0.2 mm 1 m/s 649 mmHg 52%
12:00 +27°C° 0.2 mm 1 m/s 649 mmHg 53%
13:00 +28°C° 0.2 mm 1 m/s 648 mmHg 55%
14:00 +27°C° 0.9 mm 1 m/s 647 mmHg 63%
15:00 +25°C° 0.9 mm 1 m/s 646 mmHg 71%
16:00 +24°C° 0.9 mm 1 m/s 646 mmHg 78%
17:00 +23°C° 0.4 mm 1 m/s 645 mmHg 82%
18:00 +21°C° 0.4 mm 1 m/s 645 mmHg 85%
19:00 +20°C° 0.4 mm 1 m/s 645 mmHg 88%
20:00 +19°C° 0.2 mm 1 m/s 645 mmHg 85%
21:00 +18°C° 0.2 mm 2 m/s 645 mmHg 82%
22:00 +17°C° 0.2 mm 2 m/s 646 mmHg 78%
23:00 +17°C° 0 mm 2 m/s 646 mmHg 75%

Poimâine, 27 Septembrie, Duminică

Timp Temperatura Precipitaţii Vânt Presiune Umiditate
00:00 +19°C° 0 mm 1 m/s 645 mmHg 71%
01:00 +19°C° 0 mm 1 m/s 645 mmHg 67%
02:00 +19°C° 0 mm 1 m/s 645 mmHg 66%
03:00 +19°C° 0 mm 1 m/s 645 mmHg 65%
04:00 +19°C° 0 mm 1 m/s 645 mmHg 64%
05:00 +20°C° 0 mm 1 m/s 645 mmHg 64%
06:00 +19°C° 0 mm 0 m/s 646 mmHg 64%
07:00 +19°C° 0 mm 0 m/s 647 mmHg 65%
08:00 +23°C° 0 mm 1 m/s 647 mmHg 62%
09:00 +25°C° 0 mm 1 m/s 648 mmHg 59%
10:00 +27°C° 0 mm 1 m/s 649 mmHg 56%
11:00 +27°C° 0.4 mm 1 m/s 648 mmHg 59%
12:00 +27°C° 0.4 mm 1 m/s 647 mmHg 62%
13:00 +26°C° 0.4 mm 1 m/s 646 mmHg 65%
14:00 +26°C° 1.5 mm 1 m/s 646 mmHg 72%
15:00 +25°C° 1.5 mm 1 m/s 645 mmHg 79%
16:00 +22°C° 1.5 mm 0 m/s 644 mmHg 86%
17:00 +22°C° 0.4 mm 1 m/s 644 mmHg 88%
18:00 +21°C° 0.4 mm 1 m/s 644 mmHg 90%
19:00 +20°C° 0.4 mm 1 m/s 644 mmHg 92%
20:00 +19°C° 0.1 mm 1 m/s 645 mmHg 90%
21:00 +19°C° 0.1 mm 1 m/s 645 mmHg 88%
22:00 +18°C° 0.1 mm 1 m/s 645 mmHg 86%
23:00 +18°C° 0 mm 1 m/s 645 mmHg 83%

28 Septembrie, Luni

Timp Temperatura Precipitaţii Vânt Presiune Umiditate
00:00 +18°C° 0 mm 1 m/s 644 mmHg 80%
01:00 +18°C° 0 mm 1 m/s 644 mmHg 78%
02:00 +18°C° 0.2 mm 1 m/s 644 mmHg 77%
03:00 +18°C° 0.2 mm 1 m/s 644 mmHg 76%
04:00 +18°C° 0.2 mm 1 m/s 644 mmHg 76%
05:00 +19°C° 0 mm 1 m/s 645 mmHg 74%
06:00 +18°C° 0 mm 0 m/s 645 mmHg 72%
07:00 +19°C° 0 mm 0 m/s 646 mmHg 70%
08:00 +23°C° 0 mm 1 m/s 647 mmHg 66%
09:00 +25°C° 0 mm 1 m/s 648 mmHg 61%
10:00 +26°C° 0 mm 1 m/s 648 mmHg 57%
11:00 +26°C° 0.3 mm 1 m/s 647 mmHg 61%
12:00 +26°C° 0.3 mm 1 m/s 647 mmHg 66%
13:00 +26°C° 0.3 mm 1 m/s 646 mmHg 70%
14:00 +25°C° 1.4 mm 1 m/s 645 mmHg 76%
15:00 +24°C° 1.4 mm 1 m/s 645 mmHg 82%
16:00 +21°C° 1.4 mm 0 m/s 644 mmHg 87%
17:00 +22°C° 0.7 mm 1 m/s 644 mmHg 89%
18:00 +21°C° 0.7 mm 1 m/s 644 mmHg 92%
19:00 +20°C° 0.7 mm 1 m/s 644 mmHg 94%
20:00 +19°C° 0.3 mm 1 m/s 645 mmHg 93%
21:00 +19°C° 0.3 mm 1 m/s 645 mmHg 92%
22:00 +19°C° 0.3 mm 1 m/s 645 mmHg 91%
23:00 +19°C° 0.1 mm 1 m/s 645 mmHg 91%

29 Septembrie, Marţi

Timp Temperatura Precipitaţii Vânt Presiune Umiditate
00:00 +19°C° 0.1 mm 1 m/s 645 mmHg 90%
01:00 +18°C° 0.1 mm 1 m/s 644 mmHg 89%
02:00 +19°C° 0 mm 1 m/s 644 mmHg 87%
03:00 +19°C° 0 mm 1 m/s 645 mmHg 86%
04:00 +19°C° 0 mm 1 m/s 645 mmHg 84%
05:00 +20°C° 0 mm 1 m/s 645 mmHg 83%
06:00 +20°C° 0 mm 1 m/s 646 mmHg 82%
07:00 +21°C° 0 mm 1 m/s 647 mmHg 81%
08:00 +22°C° 0.1 mm 1 m/s 647 mmHg 77%
09:00 +24°C° 0.1 mm 1 m/s 648 mmHg 73%
10:00 +25°C° 0.1 mm 1 m/s 648 mmHg 69%
11:00 +25°C° 1.1 mm 1 m/s 648 mmHg 74%
12:00 +24°C° 1.1 mm 1 m/s 647 mmHg 78%
13:00 +24°C° 1.1 mm 1 m/s 646 mmHg 82%
14:00 +24°C° 0.5 mm 1 m/s 646 mmHg 83%
15:00 +23°C° 0.5 mm 1 m/s 645 mmHg 83%
16:00 +23°C° 0.5 mm 1 m/s 645 mmHg 83%
17:00 +22°C° 0.1 mm 1 m/s 645 mmHg 84%
18:00 +21°C° 0.1 mm 1 m/s 645 mmHg 85%
19:00 +19°C° 0.1 mm 1 m/s 645 mmHg 86%
20:00 +18°C° 0 mm 2 m/s 645 mmHg 83%
21:00 +18°C° 0 mm 2 m/s 646 mmHg 80%
22:00 +18°C° 0 mm 2 m/s 646 mmHg 78%
23:00 +18°C° 0 mm 2 m/s 646 mmHg 77%

30 Septembrie, Miercuri

Timp Temperatura Precipitaţii Vânt Presiune Umiditate
00:00 +19°C° 0 mm 1 m/s 645 mmHg 77%
01:00 +19°C° 0 mm 1 m/s 645 mmHg 76%
02:00 +19°C° 0 mm 1 m/s 645 mmHg 77%
03:00 +19°C° 0 mm 1 m/s 645 mmHg 78%
04:00 +18°C° 0 mm 1 m/s 645 mmHg 78%
05:00 +19°C° 0 mm 1 m/s 646 mmHg 77%
06:00 +20°C° 0 mm 1 m/s 646 mmHg 75%
07:00 +21°C° 0 mm 1 m/s 647 mmHg 73%
08:00 +23°C° 0 mm 1 m/s 648 mmHg 66%
09:00 +25°C° 0 mm 1 m/s 649 mmHg 59%
10:00 +27°C° 0 mm 1 m/s 649 mmHg 51%
11:00 +27°C° 0.1 mm 1 m/s 649 mmHg 51%
12:00 +28°C° 0.1 mm 1 m/s 648 mmHg 50%
13:00 +28°C° 0.1 mm 1 m/s 647 mmHg 49%
14:00 +27°C° 0.3 mm 1 m/s 647 mmHg 56%
15:00 +26°C° 0.3 mm 1 m/s 646 mmHg 64%
16:00 +25°C° 0.3 mm 1 m/s 645 mmHg 72%
17:00 +23°C° 0.2 mm 1 m/s 645 mmHg 78%
18:00 +21°C° 0.2 mm 1 m/s 645 mmHg 83%
19:00 +20°C° 0.2 mm 1 m/s 645 mmHg 89%
20:00 +19°C° 0.1 mm 1 m/s 645 mmHg 84%
21:00 +18°C° 0.1 mm 2 m/s 646 mmHg 80%
22:00 +17°C° 0.1 mm 2 m/s 646 mmHg 75%
23:00 +17°C° 0 mm 2 m/s 645 mmHg 72%
Arată mai mult